FW7501 Weather Reports


time (UTC)temp
F
wind
direction
speed
knots
gust
knots
rain 1hr
in
rain 24hr
in
rain mn
in
humidity
%
barometer
mb
20260904074015 52 8 11.3 27.8 0.00 0.00 0.00 71 1015.3
20260904073514 52 12 10.4 23.5 0.00 0.00 0.00 71 1015.3
20260904073031 52 28 13.0 26.1 0.00 0.00 0.00 71 1015.1
20260904072512 52 31 14.8 29.5 0.00 0.00 0.00 71 1015.2
20260904072027 52 322 14.8 29.5 0.00 0.00 0.00 71 1015.2
20260904071530 52 15 11.3 24.3 0.00 0.00 0.00 71 1015.1
20260904071012 52 21 11.3 20.0 0.00 0.00 0.00 71 1015.2
20260904070517 52 345 7.8 20.0 0.00 0.00 0.00 71 1015.3
20260904070032 52 8 7.0 24.3 0.00 0.00 0.00 71 1015.3
20260904065509 53 345 11.3 24.3 0.00 0.00 0.00 70 1015.3
20260904065019 53 62 11.3 20.0 0.00 0.00 0.00 70 1015.6
20260904064525 53 345 10.4 18.2 0.00 0.00 0.00 70 1015.7
20260904064021 53 52 8.7 19.1 0.00 0.00 0.00 70 1015.8
20260904063520 53 12 7.8 19.1 0.00 0.00 0.00 70 1016.0
20260904063032 53 359 8.7 22.6 0.00 0.00 0.00 69 1015.9
20260904062518 53 336 6.1 22.6 0.00 0.00 0.00 70 1016.0
20260904062015 53 18 4.3 16.5 0.00 0.00 0.00 70 1016.3
20260904061525 53 16 7.8 16.5 0.00 0.00 0.00 69 1016.5
20260904061018 54 8 7.0 16.5 0.00 0.00 0.00 68 1016.5
20260904060516 54 38 6.1 16.5 0.00 0.00 0.00 69 1016.5
20260904060035 54 353 7.8 15.6 0.00 0.00 0.00 69 1016.7
20260904055517 54 13 7.8 13.0 0.00 0.00 0.00 69 1016.9
20260904055015 53 346 6.1 20.9 0.00 0.00 0.00 69 1017.0
20260904054544 53 9 7.0 20.9 0.00 0.00 0.00 68 1017.0
20260904054015 54 333 7.8 15.6 0.00 0.00 0.00 67 1017.1
20260904053515 54 5 9.6 16.5 0.00 0.00 0.00 67 1017.1
20260904053043 54 358 7.8 16.5 0.00 0.00 0.00 67 1017.1
20260904052514 54 354 10.4 17.4 0.00 0.00 0.00 66 1017.2
20260904052007 54 5 10.4 20.0 0.00 0.00 0.00 67 1017.2
20260904051510 53 339 12.2 20.0 0.00 0.00 0.00 67 1017.3
20260904051003 53 341 10.4 20.0 0.00 0.00 0.00 67 1017.3
20260904050508 54 351 10.4 20.0 0.00 0.00 0.00 67 1017.5
20260904050004 54 8 13.0 20.0 0.00 0.00 0.00 66 1017.4
20260904045501 54 334 8.7 17.4 0.00 0.00 0.00 66 1017.4
20260904045007 54 343 11.3 20.0 0.00 0.00 0.00 67 1017.3
20260904044503 54 31 7.8 20.0 0.00 0.00 0.00 67 1017.4
20260904044005 54 2 9.6 24.3 0.00 0.00 0.00 66 1017.3
20260904043504 55 8 9.6 24.3 0.00 0.00 0.00 66 1017.1
20260904043003 55 10 11.3 18.2 0.00 0.00 0.00 66 1017.1
20260904042503 55 341 12.2 20.0 0.00 0.00 0.00 65 1017.1
20260904042004 56 333 12.2 20.0 0.00 0.00 0.00 65 1017.1
20260904041506 56 343 13.9 20.0 0.00 0.00 0.00 65 1017.1
20260904041006 55 348 13.0 20.0 0.00 0.00 0.00 64 1017.1
20260904040502 55 325 11.3 20.0 0.00 0.00 0.00 66 1016.8
20260904040009 55 9 12.2 20.0 0.00 0.00 0.00 66 1017.0
20260904035504 55 354 10.4 18.2 0.00 0.00 0.00 66 1017.4
20260904035004 55 351 9.6 19.1 0.00 0.00 0.00 68 1017.3
20260904034513 55 345 13.0 19.1 0.00 0.00 0.00 67 1017.2
20260904034004 55 349 11.3 17.4 0.00 0.00 0.00 67 1017.3
20260904033513 56 353 7.0 15.6 0.00 0.00 0.00 68 1017.3
20260904033010 56 85 7.0 15.6 0.00 0.00 0.00 69 1017.4
20260904032505 56 9 8.7 22.6 0.00 0.00 0.00 70 1017.6
20260904032004 54 6 7.8 22.6 0.00 0.00 0.00 68 1017.9
20260904031506 55 2 11.3 20.0 0.00 0.00 0.00 67 1018.0
20260904031003 55 339 12.2 20.0 0.00 0.00 0.00 69 1018.0
20260904030504 55 344 13.0 21.7 0.00 0.00 0.00 67 1018.0
20260904030007 55 337 13.0 21.7 0.00 0.00 0.00 68 1018.1
20260904025508 55 350 13.0 20.9 0.00 0.00 0.00 69 1018.1
20260904025009 53 4 13.0 21.7 0.00 0.00 0.00 69 1018.3
20260904024504 53 8 8.7 21.7 0.00 0.00 0.00 69 1018.3
20260904024009 55 30 8.7 19.1 0.00 0.00 0.00 69 1018.3
20260904023505 54 51 8.7 19.1 0.00 0.00 0.00 71 1018.3
20260904023017 53 16 8.7 20.0 0.00 0.00 0.00 69 1018.5
20260904022508 53 346 11.3 20.0 0.00 0.00 0.00 67 1018.5
20260904022005 53 9 12.2 20.0 0.00 0.00 0.00 68 1018.5
20260904021528 53 340 11.3 18.2 0.00 0.00 0.00 69 1018.6
20260904021004 53 349 10.4 20.9 0.00 0.00 0.00 69 1018.7
20260904020504 52 18 11.3 21.7 0.00 0.00 0.00 69 1018.8
20260904020008 52 4 13.9 21.7 0.00 0.00 0.00 69 1018.9
20260904015503 52 13 9.6 18.2 0.00 0.00 0.00 68 1018.9
20260904015004 52 349 7.8 17.4 0.00 0.00 0.00 70 1018.9
20260904014510 52 7 9.6 15.6 0.00 0.00 0.00 68 1018.8
20260904014008 52 352 7.0 15.6 0.00 0.00 0.00 70 1019.1
20260904013507 52 28 9.6 15.6 0.00 0.00 0.00 68 1019.1
20260904013014 51 318 9.6 15.6 0.00 0.00 0.00 70 1019.1
20260904012504 51 8 8.7 15.6 0.00 0.00 0.00 71 1019.3
20260904012010 51 344 8.7 14.8 0.00 0.00 0.00 71 1019.3
20260904011509 51 345 7.8 17.4 0.00 0.00 0.00 72 1019.2
20260904011015 50 330 5.2 17.4 0.00 0.00 0.00 73 1019.3
20260904010512 50 28 7.8 13.9 0.00 0.00 0.00 72 1019.5
20260904010009 51 4 8.7 13.9 0.00 0.00 0.00 74 1019.6
20260904005515 50 1 6.1 10.4 0.00 0.00 0.00 75 1019.6
20260904005005 49 343 4.3 10.4 0.00 0.00 0.00 77 1019.6
20260904004506 49 33 3.5 9.6 0.00 0.00 0.00 77 1019.7
20260904004007 48 18 2.6 13.0 0.00 0.00 0.00 77 1020.0
20260904003507 49 82 5.2 13.0 0.00 0.00 0.00 77 1020.2
20260904003012 49 27 7.0 15.6 0.00 0.00 0.00 77 1020.4
20260904002510 49 12 8.7 15.6 0.00 0.00 0.00 77 1020.5
20260904002004 49 24 4.3 15.6 0.00 0.00 0.00 77 1020.4
20260904001518 49 24 7.8 15.6 0.00 0.00 0.00 76 1020.4
20260904001009 49 16 8.7 13.9 0.00 0.00 0.00 77 1020.3
20260904000512 48 340 8.7 13.9 0.00 0.00 0.00 76 1020.3
20260904000024 49 29 8.7 13.9 0.00 0.00 0.00 76 1020.4
20260903235511 49 20 5.2 10.4 0.00 0.00 0.00 78 1020.5
20260903235017 48 12 5.2 12.2 0.00 0.00 0.00 78 1020.5
20260903234519 49 12 7.8 12.2 0.00 0.00 0.00 79 1020.6
20260903234007 49 54 4.3 9.6 0.00 0.00 0.00 79 1020.5
20260903233506 48 347 4.3 9.6 0.00 0.00 0.00 80 1020.4
20260903233010 47 16 5.2 11.3 0.00 0.00 0.00 81 1020.4
20260903232508 47 355 8.7 12.2 0.00 0.00 0.00 80 1020.6
20260903232008 47 358 7.8 12.2 0.00 0.00 0.00 80 1020.8
20260903231513 47 330 7.0 11.3 0.00 0.00 0.00 79 1020.9
20260903231012 48 339 7.0 9.6 0.00 0.00 0.00 80 1020.9
20260903230509 47 325 6.1 10.4 0.00 0.00 0.00 79 1020.6
20260903230034 47 345 7.0 13.0 0.00 0.00 0.00 80 1020.7
20260903225514 46 337 7.8 13.0 0.00 0.00 0.00 79 1020.7
20260903225009 46 353 7.8 13.0 0.00 0.00 0.00 79 1020.9
20260903224533 46 342 7.8 13.9 0.00 0.00 0.00 78 1021.0
20260903224014 46 314 7.8 13.9 0.00 0.00 0.00 78 1021.2
20260903223506 46 350 7.8 13.0 0.00 0.00 0.00 78 1021.0
20260903223029 46 358 7.8 11.3 0.00 0.00 0.00 79 1021.0
20260903222512 46 317 5.2 8.7 0.00 0.00 0.00 80 1020.8
20260903222021 46 334 4.3 7.8 0.00 0.00 0.00 80 1020.6
20260903221512 45 345 3.5 5.2 0.00 0.00 0.00 81 1020.5
20260903221009 45 348 1.7 4.3 0.00 0.00 0.00 81 1020.4
20260903220508 44 358 1.7 5.2 0.00 0.00 0.00 81 1020.3
20260903220024 43 355 0.9 6.1 0.00 0.00 0.00 81 1020.3
20260903215509 43 2 3.5 6.1 0.00 0.00 0.00 81 1020.3
20260903215014 42 3 2.6 5.2 0.00 0.00 0.00 82 1020.3
20260903214529 41 341 0.0 3.5 0.00 0.00 0.00 81 1020.2
20260903214017 41 341 1.7 3.5 0.00 0.00 0.00 81 1020.2
20260903213514 40 331 0.9 2.6 0.00 0.00 0.00 81 1020.1
20260903213014 40 308 0.0 2.6 0.00 0.00 0.00 80 1020.0
20260903212517 40 308 0.9 3.5 0.00 0.00 0.00 79 1020.0
20260903212012 41 317 0.9 4.3 0.00 0.00 0.00 78 1019.9
20260903211534 42 343 1.7 4.3 0.00 0.00 0.00 78 1019.7
20260903211014 42 7 0.0 4.3 0.00 0.00 0.00 77 1019.6
20260903210510 42 351 1.7 4.3 0.00 0.00 0.00 77 1019.5
20260903210041 42 10 0.0 4.3 0.00 0.00 0.00 77 1019.4
20260903205508 43 360 0.9 4.3 0.00 0.00 0.00 77 1019.5
20260903205018 42 38 0.9 3.5 0.00 0.00 0.00 78 1019.4
20260903204520 42 47 1.7 3.5 0.00 0.00 0.00 79 1019.3
20260903204015 41 33 0.9 2.6 0.00 0.00 0.00 80 1019.3
20260903203515 41 35 0.0 1.7 0.00 0.00 0.00 80 1019.3
20260903203025 40 35 0.0 1.7 0.00 0.00 0.00 80 1019.2
20260903202514 40 9 0.0 1.7 0.00 0.00 0.00 78 1019.3
20260903202004 40 9 0.0 1.7 0.00 0.00 0.00 79 1019.4
20260903201507 40 9 0.0 2.6 0.00 0.00 0.00 79 1019.1
20260903201007 40 9 0.9 2.6 0.00 0.00 0.00 78 1019.4
20260903200507 40 27 0.0 0.0 0.00 0.00 0.00 78 1019.4
20260903200008 40 27 0.0 0.0 0.00 0.00 0.00 78 1019.3
20260903195508 40 27 0.0 0.0 0.00 0.00 0.00 77 1019.3
20260903195007 40 27 0.0 0.0 0.00 0.00 0.00 76 1019.3
20260903194514 41 27 0.0 0.0 0.00 0.00 0.00 75 1019.3
20260903194008 41 27 0.0 0.0 0.00 0.00 0.00 75 1019.2
20260903193503 41 27 0.0 0.0 0.00 0.00 0.00 74 1019.3
20260903193019 42 27 0.0 1.7 0.00 0.00 0.00 73 1019.3
20260903192504 43 27 0.0 1.7 0.00 0.00 0.00 73 1019.2
20260903192016 43 27 0.0 0.9 0.00 0.00 0.00 72 1019.2
20260903191504 43 27 0.0 0.9 0.00 0.00 0.00 72 1019.2
20260903191006 43 27 0.0 0.9 0.00 0.00 0.00 71 1019.1
20260903190507 44 27 0.0 2.6 0.00 0.00 0.00 72 1019.2
20260903190007 44 27 0.9 2.6 0.00 0.00 0.00 71 1019.2
20260903185503 44 13 0.0 2.6 0.00 0.00 0.00 71 1019.1
20260903185008 44 13 0.0 3.5 0.00 0.00 0.00 71 1019.1
20260903184508 44 18 0.9 3.5 0.00 0.00 0.00 71 1019.1
20260903184009 44 19 0.9 4.3 0.00 0.00 0.00 71 1019.2
20260903183511 44 15 1.7 4.3 0.00 0.00 0.00 72 1019.1
20260903183006 44 355 1.7 3.5 0.00 0.00 0.00 73 1019.1
20260903182513 44 18 0.0 3.5 0.00 0.00 0.00 73 1019.1
20260903182006 43 4 0.9 3.5 0.00 0.00 0.00 74 1019.1
20260903181505 43 33 0.9 3.5 0.00 0.00 0.00 74 1019.1
20260903181013 43 21 0.9 3.5 0.00 0.00 0.00 74 1019.1
20260903180508 43 19 0.0 3.5 0.00 0.00 0.00 72 1019.1
20260903180034 44 13 0.9 5.2 0.00 0.00 0.00 73 1019.0
20260903175510 44 12 1.7 5.2 0.00 0.00 0.00 72 1018.9
20260903175005 45 15 0.9 5.2 0.00 0.00 0.00 72 1018.9
20260903174508 45 10 1.7 3.5 0.00 0.00 0.00 72 1019.0
20260903174008 45 10 0.0 3.5 0.00 0.00 0.00 72 1019.0
20260903173509 45 18 0.9 3.5 0.00 0.00 0.00 72 1019.1
20260903173013 45 9 1.7 3.5 0.00 0.00 0.00 72 1019.0
20260903172504 45 20 1.7 3.5 0.00 0.00 0.00 72 1019.1
20260903172012 45 35 1.7 3.5 0.00 0.00 0.00 72 1019.1
20260903171514 45 18 1.7 3.5 0.00 0.00 0.00 72 1019.1
20260903171004 45 15 1.7 3.5 0.00 0.00 0.00 72 1019.1
20260903170514 45 20 1.7 3.5 0.00 0.00 0.00 71 1019.2
20260903170014 45 15 1.7 3.5 0.00 0.00 0.00 71 1019.2
20260903165517 45 28 1.7 3.5 0.00 0.00 0.00 72 1019.3
20260903165015 45 23 1.7 3.5 0.00 0.00 0.00 72 1019.4
20260903164511 45 26 1.7 4.3 0.00 0.00 0.00 72 1019.5
20260903164015 45 39 1.7 4.3 0.00 0.00 0.00 73 1019.5
20260903163506 45 25 1.7 3.5 0.00 0.00 0.00 73 1019.5
20260903163009 45 35 1.7 3.5 0.00 0.00 0.00 73 1019.6
20260903162507 45 25 1.7 4.3 0.00 0.00 0.00 73 1019.7
20260903162013 45 12 1.7 4.3 0.00 0.00 0.00 73 1019.8
20260903161518 45 18 1.7 4.3 0.00 0.00 0.00 73 1019.8
20260903161009 45 17 1.7 4.3 0.00 0.00 0.00 73 1019.8
20260903160512 46 5 1.7 3.5 0.00 0.00 0.00 73 1019.8
20260903160019 46 6 1.7 3.5 0.00 0.00 0.00 73 1019.9
20260903155514 46 12 1.7 4.3 0.00 0.00 0.00 74 1020.0
20260903155015 46 6 1.7 4.3 0.00 0.00 0.00 74 1020.0
20260903154511 46 17 1.7 3.5 0.00 0.00 0.00 76 1020.0
20260903154017 46 16 1.7 3.5 0.00 0.00 0.00 77 1020.1
20260903153517 45 7 1.7 5.2 0.00 0.00 0.00 79 1020.1
20260903153012 44 354 0.9 5.2 0.00 0.00 0.00 81 1020.1
20260903152517 43 360 0.9 2.6 0.00 0.00 0.00 82 1020.2
20260903152012 43 10 0.0 2.6 0.00 0.00 0.00 82 1020.3
20260903151513 43 10 0.0 2.6 0.00 0.00 0.00 82 1020.2
20260903151011 43 10 0.0 0.0 0.00 0.00 0.00 82 1020.2
20260903150511 43 10 0.0 0.0 0.00 0.00 0.00 82 1020.2
20260903150019 43 10 0.0 0.0 0.00 0.00 0.00 81 1020.3
20260903145517 43 10 0.0 0.0 0.00 0.00 0.00 81 1020.2
20260903145018 44 10 0.0 0.9 0.00 0.00 0.00 81 1020.2
20260903144527 44 10 0.0 2.6 0.00 0.00 0.00 81 1020.2
20260903144011 44 10 0.0 3.5 0.00 0.00 0.00 81 1020.2
20260903143513 44 10 0.0 3.5 0.00 0.00 0.00 80 1020.3
20260903143027 43 22 0.0 2.6 0.00 0.00 0.00 80 1020.2
20260903142513 43 23 1.7 2.6 0.00 0.00 0.00 78 1020.2
20260903142017 44 23 0.0 2.6 0.00 0.00 0.00 78 1020.2
20260903141535 45 23 0.9 2.6 0.00 0.00 0.00 77 1020.2
20260903141018 46 51 0.0 2.6 0.00 0.00 0.00 77 1020.2
20260903140514 46 51 0.0 2.6 0.00 0.00 0.00 75 1020.3
20260903140020 47 78 0.0 3.5 0.00 0.00 0.00 75 1020.3
20260903135510 48 78 0.0 3.5 0.00 0.00 0.00 75 1020.4
20260903135012 48 94 0.9 2.6 0.00 0.00 0.00 75 1020.3
20260903134516 48 108 0.9 2.6 0.00 0.00 0.00 75 1020.4
20260903134014 48 108 0.9 2.6 0.00 0.00 0.00 75 1020.4
20260903133515 48 108 0.9 2.6 0.00 0.00 0.00 74 1020.5
20260903133028 48 108 0.9 2.6 0.00 0.00 0.00 74 1020.5
20260903132515 48 108 0.9 3.5 0.00 0.00 0.00 74 1020.5
20260903132012 48 108 1.7 3.5 0.00 0.00 0.00 75 1020.6
20260903131528 48 116 0.9 2.6 0.00 0.00 0.00 75 1020.6
20260903131018 48 116 1.7 2.6 0.00 0.00 0.00 75 1020.6
20260903130520 48 116 1.7 2.6 0.00 0.00 0.00 76 1020.6
20260903130034 48 116 1.7 3.5 0.00 0.00 0.00 76 1020.6
20260903125514 47 116 1.7 3.5 0.00 0.00 0.00 76 1020.6
20260903125021 47 116 1.7 2.6 0.00 0.00 0.00 75 1020.7
20260903124533 48 116 1.7 3.5 0.00 0.00 0.00 75 1020.6
20260903124016 48 117 0.9 3.5 0.00 0.00 0.00 74 1020.6
20260903123512 48 143 1.7 2.6 0.00 0.00 0.00 74 1020.6
20260903123024 48 147 0.9 3.5 0.00 0.00 0.00 74 1020.6
20260903122516 49 147 1.7 3.5 0.00 0.00 0.00 74 1020.6
20260903122014 48 149 1.7 3.5 0.00 0.00 0.00 74 1020.5
20260903121527 48 142 1.7 3.5 0.00 0.00 0.00 75 1020.5
20260903121012 48 141 1.7 7.0 0.00 0.00 0.00 75 1020.5
20260903120518 48 151 1.7 7.0 0.00 0.00 0.00 76 1020.4
20260903120028 47 120 2.6 4.3 0.00 0.00 0.00 75 1020.4
20260903115519 48 142 0.9 3.5 0.00 0.00 0.00 73 1020.3
20260903115016 49 139 0.0 1.7 0.00 0.00 0.00 73 1020.3
20260903114528 49 133 0.9 1.7 0.00 0.00 0.00 72 1020.2
20260903114021 49 133 0.9 1.7 0.00 0.00 0.00 72 1020.1
20260903113515 50 133 0.0 1.7 0.00 0.00 0.00 72 1020.0
20260903113031 50 133 0.0 1.7 0.00 0.00 0.00 71 1019.9
20260903112518 50 133 0.0 2.6 0.00 0.00 0.00 71 1019.8
20260903112005 50 133 0.9 2.6 0.00 0.00 0.00 71 1019.8
20260903111504 50 133 0.9 2.6 0.00 0.00 0.00 70 1020.1
20260903111004 50 133 0.9 2.6 0.00 0.00 0.00 70 1020.0
20260903110505 50 145 0.9 2.6 0.00 0.00 0.00 70 1020.0
20260903110008 50 145 0.9 2.6 0.00 0.00 0.00 70 1019.9
20260903105503 50 147 0.0 1.7 0.00 0.00 0.00 69 1019.8
20260903105004 50 147 0.0 1.7 0.00 0.00 0.00 69 1019.8
20260903104514 50 147 0.0 1.7 0.00 0.00 0.00 69 1019.7
20260903104005 50 147 0.0 1.7 0.00 0.00 0.00 69 1019.7
20260903103508 50 147 0.0 0.9 0.00 0.00 0.00 68 1019.6
20260903103008 50 147 0.0 0.9 0.00 0.00 0.00 68 1019.5
20260903102504 50 147 0.0 0.9 0.00 0.00 0.00 68 1019.4
20260903102009 50 147 0.0 0.9 0.00 0.00 0.00 68 1019.2
20260903101512 51 147 0.0 1.7 0.00 0.00 0.00 67 1019.2
20260903101004 51 147 0.0 2.6 0.00 0.00 0.00 67 1019.2
20260903100503 51 147 0.0 2.6 0.00 0.00 0.00 67 1019.1
20260903100005 51 147 1.7 2.6 0.00 0.00 0.00 66 1019.1
20260903095504 51 147 1.7 2.6 0.00 0.00 0.00 67 1019.0
20260903095005 51 276 0.0 1.7 0.00 0.00 0.00 67 1018.9
20260903094503 51 276 0.0 1.7 0.00 0.00 0.00 66 1018.9
20260903094006 51 276 0.9 2.6 0.00 0.00 0.00 66 1018.9
20260903093506 51 276 0.9 2.6 0.00 0.00 0.00 65 1018.7
20260903093012 51 266 1.7 2.6 0.00 0.00 0.00 65 1018.7
20260903092507 51 191 0.0 1.7 0.00 0.00 0.00 66 1018.6
20260903092006 51 191 0.0 1.7 0.00 0.00 0.00 65 1018.6
20260903091531 51 191 0.0 1.7 0.00 0.00 0.00 65 1018.6
20260903091006 51 191 0.0 1.7 0.00 0.00 0.00 64 1018.5
20260903090503 52 191 0.0 2.6 0.00 0.00 0.00 64 1018.4
20260903090023 52 191 0.0 2.6 0.00 0.00 0.00 64 1018.4
20260903085505 53 191 0.9 3.5 0.00 0.00 0.00 63 1018.3
20260903085006 53 203 0.9 6.1 0.00 0.00 0.00 62 1018.1
20260903084509 53 233 1.7 7.0 0.00 0.00 0.00 62 1018.0
20260903084004 53 219 2.6 7.0 0.00 0.00 0.00 63 1018.0
20260903083507 53 258 1.7 7.0 0.00 0.00 0.00 62 1017.8
20260903083008 53 253 2.6 7.0 0.00 0.00 0.00 62 1017.7
20260903082508 54 264 1.7 6.1 0.00 0.00 0.00 61 1017.5
20260903082007 54 261 2.6 6.1 0.00 0.00 0.00 61 1017.4
20260903081505 54 249 1.7 5.2 0.00 0.00 0.00 61 1017.4
20260903081018 54 249 1.7 7.0 0.00 0.00 0.00 61 1017.4
20260903080515 55 248 2.6 7.0 0.00 0.00 0.00 61 1017.3
20260903080023 55 250 1.7 7.8 0.00 0.00 0.00 62 1017.3
20260903075513 55 270 2.6 7.8 0.00 0.00 0.00 62 1017.2
20260903075005 55 254 2.6 7.8 0.00 0.00 0.00 58 1017.1
20260903074525 56 248 1.7 7.8 0.00 0.00 0.00 58 1016.9